FW5165 Weather Reports


Display with metric or nautical units.
time (UTC)temp
F
wind
direction
speed
MPH
gust
MPH
rain 1hr
in
rain 24hr
in
rain mn
in
humidity
%
barometer
mb
20260506091057 57 223 0.0 2.0 0.00 0.01 0.00 86 1020.4
20260506090557 57 225 0.0 1.0 0.00 0.01 0.00 85 1020.3
20260506090112 57 225 0.0 2.0 0.00 0.01 0.00 86 1020.4
20260506085556 57 225 0.0 2.0 0.00 0.01 0.00 86 1020.4
20260506085056 57 225 0.0 2.0 0.00 0.01 0.00 86 1020.4
20260506084556 57 225 0.0 2.0 0.00 0.01 0.00 86 1020.4
20260506084056 58 226 1.0 2.0 0.00 0.01 0.00 86 1020.3
20260506083555 58 246 1.0 2.0 0.00 0.01 0.00 86 1020.4
20260506083054 58 248 1.0 4.0 0.00 0.01 0.00 86 1020.3
20260506082556 58 254 1.0 4.0 0.00 0.01 0.00 86 1020.4
20260506082053 58 263 1.0 2.0 0.00 0.01 0.00 85 1020.3
20260506081553 58 263 0.0 2.0 0.00 0.01 0.00 85 1020.3
20260506081053 58 263 0.0 2.0 0.00 0.01 0.00 85 1020.3
20260506080552 58 264 0.0 1.0 0.00 0.01 0.00 85 1020.3
20260506080152 58 264 0.0 1.0 0.00 0.01 0.00 85 1020.3
20260506073057 59 264 0.0 1.0 0.00 0.02 0.00 83 1020.1
20260506072551 59 264 0.0 1.0 0.00 0.02 0.00 83 1020.0
20260506072052 59 264 0.0 1.0 0.00 0.02 0.00 84 1020.0
20260506071547 59 264 0.0 1.0 0.00 0.02 0.00 83 1020.0
20260506071046 59 264 0.0 1.0 0.00 0.02 0.00 84 1020.0
20260506070545 59 264 0.0 1.0 0.00 0.02 0.00 84 1019.9
20260506062041 59 158 1.0 2.0 0.00 0.05 0.02 80 1019.5
20260506061555 59 158 0.0 1.0 0.00 0.05 0.02 80 1019.5
20260506061041 59 158 0.0 2.0 0.00 0.05 0.02 80 1019.5
20260506060541 60 158 0.0 2.0 0.00 0.05 0.02 80 1019.5
20260506051035 59 164 0.0 1.0 0.00 0.11 0.02 81 1019.0
20260506050535 59 164 0.0 2.0 0.00 0.11 0.02 81 1019.0
20260506045033 59 165 0.0 2.0 0.00 0.30 0.02 81 1018.8
20260506044534 60 165 0.0 2.0 0.00 0.30 0.02 81 1018.8
20260506044032 60 165 0.0 2.0 0.00 0.30 0.02 81 1018.8
20260506043531 60 165 0.0 2.0 0.00 0.30 0.02 81 1018.8
20260506043033 60 165 0.0 2.0 0.00 0.30 0.02 81 1018.7
20260506042532 60 165 1.0 2.0 0.00 0.30 0.02 81 1018.7
20260506042032 60 168 0.0 2.0 0.00 0.30 0.02 81 1018.6
20260506041530 60 168 0.0 2.0 0.00 0.30 0.02 81 1018.6
20260506041028 60 168 0.0 2.0 0.00 0.30 0.02 81 1018.5
20260506040527 60 168 0.0 2.0 0.00 0.30 0.02 80 1018.4
20260506040027 60 168 0.0 4.0 0.00 0.30 0.02 81 1018.5
20260506035526 60 168 0.0 5.0 0.00 0.43 0.02 80 1018.3
20260506035026 60 168 1.0 5.0 0.00 0.43 0.02 80 1018.2
20260506034524 60 186 2.0 4.0 0.00 0.43 0.02 80 1018.0
20260506034024 60 194 1.0 1.0 0.00 0.43 0.02 79 1018.0
20260506033524 60 194 0.0 1.0 0.00 0.43 0.02 79 1018.1
20260506033024 60 194 0.0 4.0 0.00 0.43 0.02 79 1018.0
20260506032523 60 198 0.0 1.0 0.00 0.43 0.02 79 1018.0
20260506032023 60 198 0.0 1.0 0.00 0.43 0.02 79 1017.9
20260506031523 60 198 0.0 2.0 0.00 0.43 0.02 78 1017.7
20260506031022 60 198 0.0 2.0 0.00 0.43 0.02 79 1017.7
20260506030524 60 198 0.0 2.0 0.00 0.43 0.02 78 1017.7
20260506030022 61 203 0.0 2.0 0.00 0.43 0.02 78 1017.6
20260506025521 61 210 0.0 4.0 0.00 0.55 0.02 78 1017.6
20260506025020 61 134 0.0 6.0 0.00 0.55 0.02 78 1017.7
20260506024520 61 162 3.0 6.0 0.00 0.55 0.02 77 1017.6
20260506024019 61 181 4.0 6.0 0.00 0.55 0.02 77 1017.5
20260506023519 61 151 2.0 7.0 0.00 0.55 0.02 77 1017.3
20260506023018 61 146 4.0 7.0 0.00 0.55 0.02 76 1017.3
20260506022518 61 167 4.0 7.0 0.00 0.55 0.02 75 1017.3
20260506022018 61 157 4.0 8.0 0.00 0.55 0.02 75 1017.3
20260506021518 61 163 6.0 9.0 0.00 0.55 0.02 75 1017.2
20260506021018 61 150 3.0 6.0 0.00 0.55 0.02 76 1017.2
20260506020519 61 178 2.0 8.0 0.00 0.55 0.02 76 1017.1
20260506020030 62 163 3.0 8.0 0.00 0.55 0.02 76 1017.0
20260506015517 62 175 4.0 9.0 0.00 0.59 0.02 75 1017.1
20260506015021 62 139 5.0 10.0 0.00 0.59 0.02 75 1017.1
20260506014516 62 153 5.0 10.0 0.00 0.59 0.02 75 1017.0
20260506014016 62 140 4.0 10.0 0.00 0.59 0.02 75 1017.0
20260506013520 62 169 5.0 10.0 0.00 0.59 0.02 74 1017.0
20260506013019 62 156 5.0 10.0 0.00 0.59 0.02 74 1017.0
20260506012516 62 140 6.0 11.0 0.00 0.59 0.02 73 1017.0
20260506012017 62 148 7.0 11.0 0.00 0.59 0.02 74 1017.0
20260506011516 62 154 3.0 8.0 0.00 0.59 0.02 74 1017.0
20260506011016 62 140 5.0 8.0 0.00 0.59 0.02 74 1016.8
20260506010515 62 158 5.0 8.0 0.00 0.59 0.02 74 1016.8
20260506010020 62 155 5.0 7.0 0.00 0.59 0.02 74 1016.9
20260506005517 62 152 5.0 6.0 0.00 0.66 0.02 74 1016.8
20260506005013 62 142 1.0 5.0 0.00 0.66 0.02 75 1017.0
20260506004522 62 158 2.0 5.0 0.00 0.66 0.02 74 1017.0
20260506004015 62 165 1.0 5.0 0.00 0.66 0.02 74 1017.0
20260506003514 62 178 1.0 5.0 0.00 0.66 0.02 74 1016.8
20260506003013 62 163 3.0 6.0 0.00 0.66 0.02 74 1016.9
20260506002513 62 175 1.0 6.0 0.00 0.66 0.02 74 1016.9
20260506002013 62 144 0.0 6.0 0.00 0.66 0.02 74 1016.8
20260506001513 62 128 3.0 6.0 0.00 0.66 0.02 74 1016.8
20260506001012 62 114 0.0 1.0 0.00 0.66 0.02 75 1016.7
20260506000511 62 126 0.0 2.0 0.00 0.66 0.02 75 1016.6
20260506000010 62 128 0.0 2.0 0.00 0.66 0.02 75 1016.7
20260505235516 62 169 0.0 5.0 0.00 0.71 0.02 75 1016.8
20260505235009 62 194 2.0 5.0 0.00 0.71 0.02 75 1016.7
20260505234512 62 158 1.0 3.0 0.00 0.71 0.02 75 1016.8
20260505234008 62 157 1.0 4.0 0.00 0.71 0.02 74 1016.8
20260505233509 62 185 0.0 5.0 0.00 0.71 0.02 75 1016.9
20260505233008 62 175 3.0 5.0 0.00 0.71 0.02 75 1016.9
20260505232508 61 96 0.0 1.0 0.00 0.71 0.02 76 1016.8
20260505232008 61 140 0.0 5.0 0.00 0.71 0.02 76 1016.8
20260505231510 61 138 2.0 6.0 0.00 0.71 0.02 76 1016.8
20260505231007 61 211 3.0 6.0 0.00 0.71 0.02 76 1016.8
20260505230507 61 252 1.0 6.0 0.00 0.71 0.02 77 1016.9
20260505230016 61 234 2.0 6.0 0.00 0.71 0.02 76 1016.8
20260505225507 61 230 0.0 5.0 0.00 0.78 0.02 77 1016.9
20260505225007 61 247 3.0 5.0 0.00 0.78 0.02 76 1016.9
20260505224506 61 331 0.0 4.0 0.00 0.78 0.02 77 1016.9
20260505224005 61 306 0.0 4.0 0.00 0.78 0.02 78 1016.9
20260505223505 61 307 0.0 6.0 0.00 0.78 0.02 77 1016.9
20260505223007 61 275 1.0 6.0 0.00 0.78 0.02 77 1016.9
20260505222505 61 132 2.0 6.0 0.00 0.78 0.02 77 1017.0
20260505222007 61 132 0.0 4.0 0.00 0.78 0.02 77 1017.0
20260505221505 61 143 0.0 6.0 0.00 0.78 0.02 76 1017.1
20260505221005 61 183 2.0 6.0 0.00 0.78 0.02 75 1017.1
20260505220504 61 232 2.0 4.0 0.00 0.78 0.02 76 1017.1
20260505220004 61 240 0.0 6.0 0.00 0.78 0.02 76 1017.1
20260505215505 61 240 3.0 6.0 0.00 0.83 0.02 76 1017.1
20260505215003 61 203 1.0 5.0 0.00 0.83 0.02 76 1017.2
20260505214503 61 245 2.0 6.0 0.00 0.83 0.02 75 1017.2
20260505214003 61 274 3.0 6.0 0.00 0.83 0.02 75 1017.3
20260505213502 61 242 0.0 5.0 0.00 0.83 0.02 75 1017.3
20260505213002 61 220 0.0 6.0 0.00 0.83 0.02 76 1017.3
20260505212503 61 219 3.0 7.0 0.00 0.83 0.02 76 1017.3
20260505212002 61 321 1.0 5.0 0.00 0.83 0.02 76 1017.3
20260505211501 61 313 1.0 6.0 0.00 0.83 0.02 76 1017.3
20260505211002 61 232 0.0 7.0 0.00 0.83 0.02 76 1017.3
20260505210501 61 236 3.0 7.0 0.00 0.83 0.02 76 1017.2
20260505210100 61 227 0.0 6.0 0.00 0.83 0.02 78 1017.3
20260505205600 60 229 3.0 6.0 0.00 0.85 0.02 78 1017.2
20260505205059 60 225 2.0 9.0 0.00 0.85 0.02 78 1017.1
20260505204605 60 240 5.0 9.0 0.00 0.85 0.02 77 1017.2
20260505204058 60 231 2.0 8.0 0.00 0.85 0.02 77 1017.2
20260505203557 60 214 5.0 8.0 0.00 0.85 0.02 78 1017.2
20260505203058 60 229 4.0 8.0 0.00 0.85 0.02 77 1017.2
20260505202557 60 269 5.0 8.0 0.00 0.85 0.02 78 1017.2
20260505202056 60 269 2.0 8.0 0.00 0.85 0.02 78 1017.2
20260505201557 60 268 4.0 8.0 0.00 0.85 0.02 77 1017.3
20260505201056 60 275 2.0 5.0 0.00 0.85 0.02 78 1017.3
20260505200556 60 240 2.0 5.0 0.00 0.85 0.02 78 1017.2
20260505200056 60 264 2.0 5.0 0.00 0.85 0.02 77 1017.4
20260505195555 59 264 1.0 5.0 0.00 0.85 0.02 78 1017.3
20260505195055 59 282 3.0 5.0 0.00 0.85 0.02 78 1017.3
20260505194553 59 248 1.0 5.0 0.00 0.85 0.02 78 1017.4
20260505194053 59 231 3.0 5.0 0.00 0.85 0.02 78 1017.5
20260505193552 59 268 0.0 7.0 0.00 0.85 0.02 78 1017.4
20260505193051 59 248 3.0 8.0 0.00 0.85 0.02 79 1017.5
20260505192550 59 236 3.0 8.0 0.00 0.85 0.02 78 1017.4
20260505192050 59 217 3.0 10.0 0.00 0.85 0.02 81 1017.4
20260505191552 59 246 5.0 10.0 0.00 0.85 0.02 80 1017.4
20260505191051 58 223 5.0 9.0 0.00 0.85 0.02 81 1017.4
20260505190552 58 236 5.0 7.0 0.00 0.85 0.02 80 1017.4
20260505190052 58 254 3.0 9.0 0.00 0.85 0.02 81 1017.4
20260505185550 58 281 6.0 9.0 0.00 0.85 0.02 81 1017.4
20260505185049 58 239 4.0 9.0 0.00 0.85 0.02 81 1017.3
20260505184549 58 306 3.0 6.0 0.00 0.85 0.02 81 1017.3
20260505184049 58 261 2.0 7.0 0.00 0.85 0.02 82 1017.3
20260505183548 58 271 3.0 8.0 0.00 0.85 0.02 81 1017.3
20260505183048 58 266 4.0 8.0 0.00 0.85 0.02 81 1017.4
20260505182548 58 246 2.0 8.0 0.00 0.85 0.02 81 1017.3
20260505182048 58 224 4.0 8.0 0.00 0.85 0.02 81 1017.3
20260505181611 58 174 3.0 9.0 0.00 0.85 0.02 81 1017.2
20260505181049 59 182 5.0 9.0 0.00 0.85 0.02 82 1017.2
20260505180545 58 225 6.0 9.0 0.00 0.85 0.02 82 1017.2
20260505180100 57 204 0.0 8.0 0.00 0.85 0.02 83 1017.2
20260505175544 57 209 5.0 9.0 0.00 0.85 0.02 82 1017.2
20260505175043 57 215 5.0 9.0 0.00 0.85 0.02 84 1017.2
20260505174544 56 204 2.0 8.0 0.00 0.85 0.02 85 1017.2
20260505174040 56 184 4.0 8.0 0.00 0.85 0.02 85 1017.2
20260505173540 56 209 2.0 8.0 0.00 0.85 0.02 85 1017.1
20260505173039 56 238 4.0 9.0 0.00 0.85 0.02 86 1017.2
20260505172538 56 231 6.0 9.0 0.00 0.85 0.02 87 1017.2
20260505172037 55 194 4.0 8.0 0.00 0.85 0.02 87 1017.2
20260505171541 55 252 2.0 8.0 0.00 0.85 0.02 88 1017.1
20260505171036 55 215 6.0 9.0 0.00 0.85 0.02 88 1017.1
20260505170534 55 220 6.0 9.0 0.00 0.85 0.02 89 1017.1
20260505170034 54 194 5.0 9.0 0.00 0.85 0.02 88 1017.2
20260505165537 54 194 4.0 7.0 0.00 0.85 0.02 90 1017.2
20260505165134 54 181 5.0 7.0 0.00 0.85 0.02 89 1017.3
20260505164533 54 198 1.0 7.0 0.00 0.85 0.02 90 1017.1
20260505164032 54 191 4.0 7.0 0.00 0.85 0.02 90 1017.2
20260505163531 54 194 3.0 6.0 0.00 0.85 0.02 91 1017.2
20260505163030 54 188 3.0 7.0 0.00 0.85 0.02 91 1017.1
20260505162529 53 195 4.0 7.0 0.00 0.85 0.02 91 1017.2
20260505162028 53 184 4.0 7.0 0.00 0.85 0.02 92 1017.1
20260505161527 53 193 3.0 7.0 0.00 0.85 0.02 92 1017.1
20260505161026 53 190 3.0 7.0 0.00 0.85 0.02 92 1017.0
20260505160531 53 161 4.0 7.0 0.00 0.85 0.02 93 1017.1
20260505153034 52 155 4.0 8.0 0.00 0.85 0.02 94 1017.1
20260505152521 52 155 3.0 6.0 0.00 0.85 0.02 94 1017.1
20260505152018 52 157 1.0 6.0 0.00 0.85 0.02 94 1017.1
20260505151521 51 160 3.0 6.0 0.00 0.85 0.02 94 1017.1
20260505151018 51 188 4.0 7.0 0.00 0.85 0.02 94 1017.0
20260505150519 51 157 4.0 7.0 0.00 0.85 0.02 94 1017.0
20260505140504 51 214 4.0 6.0 0.00 0.85 0.02 94 1016.4
20260505140110 51 223 3.0 6.0 0.00 0.85 0.02 94 1016.4
20260505124548 51 164 1.0 2.0 0.00 0.85 0.02 93 1016.1
20260505124048 51 164 0.0 2.0 0.00 0.85 0.02 93 1016.0
20260505123546 51 164 1.0 2.0 0.00 0.85 0.02 93 1016.0
20260505123052 51 164 0.0 2.0 0.00 0.85 0.02 93 1015.9
20260505122544 51 163 0.0 1.0 0.00 0.85 0.02 93 1016.0
20260505122042 52 163 0.0 1.0 0.00 0.85 0.02 93 1015.9
20260505121541 52 163 0.0 1.0 0.01 0.85 0.02 93 1015.8
20260505121041 51 163 0.0 2.0 0.01 0.85 0.02 93 1015.8
20260505120539 51 163 0.0 2.0 0.01 0.85 0.02 93 1015.8
20260505115538 51 163 0.0 4.0 0.01 0.85 0.02 93 1015.8
20260505115037 51 163 0.0 4.0 0.01 0.85 0.02 92 1015.8
20260505114536 51 164 2.0 4.0 0.01 0.85 0.02 92 1015.8
20260505114037 51 166 1.0 3.0 0.01 0.85 0.02 92 1015.9
20260505113533 51 166 0.0 4.0 0.01 0.85 0.02 92 1015.9
20260505113032 52 166 2.0 4.0 0.01 0.85 0.02 92 1016.0
20260505112530 52 167 1.0 4.0 0.01 0.85 0.02 92 1016.0
20260505112029 52 169 0.0 2.0 0.01 0.85 0.02 92 1016.0
20260505111533 52 169 0.0 2.0 0.00 0.84 0.01 92 1016.1
20260505111025 52 169 1.0 2.0 0.00 0.84 0.01 92 1016.1
20260505110524 51 169 0.0 2.0 0.00 0.84 0.01 92 1016.0
20260505102020 51 149 1.0 2.0 0.00 0.84 0.01 93 1015.9
20260505101517 51 150 0.0 2.0 0.00 0.84 0.01 93 1016.0
20260505101017 51 150 0.0 1.0 0.00 0.84 0.01 93 1016.0
20260505100517 51 150 0.0 1.0 0.00 0.84 0.01 93 1015.9
20260505100020 51 150 0.0 2.0 0.00 0.84 0.01 93 1016.0
20260505095520 51 150 0.0 4.0 0.00 0.84 0.01 93 1016.1
20260505095017 51 150 1.0 3.0 0.00 0.84 0.01 93 1016.1
20260505094518 51 150 1.0 5.0 0.00 0.84 0.01 93 1016.1
20260505094016 51 140 1.0 6.0 0.00 0.84 0.01 93 1016.1
20260505093516 51 146 1.0 6.0 0.00 0.84 0.01 93 1016.1
20260505093015 51 152 2.0 6.0 0.00 0.84 0.01 93 1016.1
20260505092515 51 155 0.0 5.0 0.00 0.84 0.01 93 1016.1
20260505092015 51 155 1.0 5.0 0.00 0.84 0.01 93 1016.2
20260505091512 51 153 1.0 5.0 0.00 0.84 0.01 93 1016.1